Skip Page Navigation
NASA JPL Caltech
NASA Logo - Jet Propulsion Laboratory + View the NASA Portal
+ Center for Near-Earth Object Studies
JPL Home Earth Solar System Stars & Galaxies Technology
JPL Solar System Dynamics
BODIES ORBITS EPHEMERIDES TOOLS PHYSICAL DATA DISCOVERY FAQ SITE MAP
IMPORTANT: The SSD Announcement email list is now available. Major changes are coming in the near future, including possible hostname and/or URL changes. To be notified of such changes, subscribe to this email list.

Please visit this page for more details.


JPL Small-Body Database Browser
Search: [ help ]  
34564 (2000 SN292)
Classification: Main-belt Asteroid          SPK-ID: 2034564
Ephemeris | Orbit Diagram | Orbital Elements | Mission Design | Physical Parameters | Discovery Circumstances | Close-Approach Data ]

[ show orbit diagram ]
Orbital Elements at Epoch 2458600.5 (2019-Apr-27.0) TDB
Reference: JPL 21 (heliocentric ecliptic J2000)
 Element Value Uncertainty (1-sigma)   Units 
e .1752413624604631 5.6575e-08  
a 2.762275407389895 1.7884e-08 au
q 2.278210501507858 1.5605e-07 au
i 11.96766074064952 6.5317e-06 deg
node 318.0772856483324 1.8717e-05 deg
peri 244.7057291867144 2.6631e-05 deg
M 206.534466716008 1.9334e-05 deg
tp 2459315.337363445972
(2021-Apr-10.83736345)
9.0601e-05 TDB
period 1676.868058473645
4.59
1.6285e-05
4.459e-08
d
yr
n .2146859427495369 2.0849e-09 deg/d
Q 3.246340313271931 2.1018e-08 au
  Orbit Determination Parameters
   # obs. used (total)      998  
   data-arc span      9457 days (25.89 yr)  
   first obs. used      1993-01-29  
   last obs. used      2018-12-21  
   planetary ephem.      DE431  
   SB-pert. ephem.      SB431-N16  
   condition code      0  
   norm. resid. RMS      .54226  
   source      ORB  
   producer      Otto Matic  
   solution date      2019-Jul-13 01:42:38  

Additional Information
 Earth MOID = 1.30685 au 
 Jupiter MOID = 1.87864 au 
 T_jup = 3.287 
[ show covariance matrix ]

Ephemeris | Orbit Diagram | Orbital Elements | Mission Design | Physical Parameters | Discovery Circumstances | Close-Approach Data ]

Physical Parameter Table
Parameter Symbol Value Units Sigma Reference Notes
absolute magnitude H 14.2   n/a MPO417048  
diameter diameter 7.133 km 1.866 urn:nasa:pds:neowise_diameters_albedos::2.0[mainbelt] (http://adsabs.harvard.edu/abs/2017AJ....154..168M)  
geometric albedo albedo 0.066   0.053 urn:nasa:pds:neowise_diameters_albedos::2.0[mainbelt] (http://adsabs.harvard.edu/abs/2017AJ....154..168M)  

34564 (2000 SN292)          Discovered 2000-Sep-27 by LINEAR at Socorro
Reference: 20020128/Numbers.arcLast Updated: 2004-04-19

[ hide close-approach data ]
Close-Approach Data   ...sorted by Date/Time (TDB)
Date/Time (TDB) Time Uncertainty
(days_HH:MM)
Body Nominal Distance (au) Minimum Distance (au) Maximum Distance (au) V-relative (km/s) V-infinity (km/s) JD (TDB) Time Uncertainty (minutes) Semi-major axis (km) Semi-minor axis (km) range-LOV angle (deg) N-sigma BP Orbit Ref. Reference Modified
1903-Aug-09 10:49 00:03 Jupiter 1.91049659997564 1.91049559096962 1.91049760899611 3.63855098263391 3.51459090432079 2416335.950496813 3.11070140578527 429.686028018965 23.7999232347913 86.3387094404121 1066891.07071025 T 21 CATAB v2.0e-lin.ifort 2019-Jul-13 01:42:42 2019-Jul-13 01:42
1963-Aug-27 00:23 00:02 Jupiter 1.87682057806746 1.87681989054416 1.87682126559813 2.52261898227653 2.33687660394661 2438268.515753756 1.54953293018149 1131.60562961228 28.6030286330226 87.9519826244383 1704761.49079687 T 21 CATAB v2.0e-lin.ifort 2019-Jul-13 01:42:42 2019-Jul-13 01:42
2023-Oct-13 17:04 < 00:01 Jupiter 1.97092344752235 1.97092275022979 1.97092414481547 1.50320228744388 1.18325765781066 2460231.211393957 0.439445270556925 141.497638074833 91.6351194345206 55.0235815259242 2039761.21437243 T 21 CATAB v2.0e-lin.ifort 2019-Jul-13 01:42:42 2019-Jul-13 01:42
2046-Jan-01 14:31 < 00:01 Jupiter 1.92608058537992 1.92607983371505 1.9260813370495 3.54681147137376 3.42057625821944 2468347.105205928 0.966758309943413 375.72284968583 23.1968036147083 87.1321681011275 1535572.15798245 T 21 CATAB v2.0e-lin.ifort 2019-Jul-13 01:42:42 2019-Jul-13 01:42
2106-Jan-26 02:31 00:03 Jupiter 1.89028237661572 1.89028171560116 1.89028303763007 2.31925875797732 2.11725646985933 2490285.604594908 2.8918219000117 1440.05017369781 34.7579169563133 86.5135121741453 1621069.05450659 T 21 CATAB v2.0e-lin.ifort 2019-Jul-13 01:42:42 2019-Jul-13 01:42
2166-Mar-18 10:00 00:05 Jupiter 1.97288646292034 1.97288492933892 1.97288799652397 1.45802560393026 1.1256888768473 2512251.916546230 5.10420412105139 517.267896862423 106.177443487402 62.4467132059745 1918963.46154089 T 21 CATAB v2.0e-lin.ifort 2019-Jul-13 01:42:42 2019-Jul-13 01:42
2188-May-30 09:14 00:05 Jupiter 1.9277830987238 1.92778139170181 1.92778480575971 3.40596598933168 3.27442382689781 2520360.885060692 5.04627706831374 454.542781435857 33.0225481266968 85.5229278957838 584499.065844471 T 21 CATAB v2.0e-lin.ifort 2019-Jul-13 01:42:42 2019-Jul-13 01:42

Alternate Designations
 2000 SN292 = 1999 RH60 
Ephemeris | Orbit Diagram | Orbital Elements | Mission Design | Physical Parameters | Discovery Circumstances | Close-Approach Data ]
ABOUT SSD CREDITS/AWARDS PRIVACY/COPYRIGHT GLOSSARY LINKS
FirstGov
(server date/time)  
NASA Home Page
Site Manager:   Ryan S. Park
Webmaster  Alan B. Chamberlin